sat.trackr.live / text

‹ back to catalog

ICEYE-X60

NORAD 66753 · 2025-276CR

PAYLOAD ACTIVE UNKNOWN

§ Identity

Operator
Country
GREC
Launch date
2025-11-28
Launch site
AFWTR
Launch vehicle
Mass (kg)
RCS (m²)

External: N2YO · Heavens-Above · Gunter

§ Orbital elements

Epoch: 2026-09-20T10:24:40.674240Z

Period
95.37 min
Inclination
97.4112°
Eccentricity
0.0003746
Mean motion
15.09917613 rev/d
Perigee alt
533.9 km
Apogee alt
539.0 km
Semi-major
6,914.6 km
B*
1.6286e-4
RAAN
333.1764°
Arg perigee
76.4843°
Mean anomaly
283.6804°
Rev number
4,474

§ Raw data

ICEYE-X601 66753U 25276CR  26263.43380410  .00002579  00000+0  16286-3 0  99992 66753  97.4112 333.1764 0003746  76.4843 283.6804 15.09917613 44744

JSON: /api/v1/satellites/66753 · /tle

For live sub-satellite position, see the globe view (requires WebGL).

§ Visibility from observer

Set your observer location to see the next 7 days of passes ≥ 10°. The values pass through the URL so the page stays shareable.

No JS? Fill the form by hand. The geolocation button needs JavaScript.